Weather History for Crosby, ND

Change the Weather History Date:

Monday, April 29, 2013

  Actual Average (KISN) Record (KISN)
Temperature  
Mean Temperature 50 °F 49 °F  
Max Temperature 64 °F 63 °F 91 °F (1949)
Min Temperature 37 °F 35 °F 12 °F (1929)
Degree Days  
Heating Degree Days 14 16  
Month to date heating degree days 634  
Since 1 July heating degree days 8509  
Cooling Degree Days 0 0  
Month to date cooling degree days 0  
Year to date cooling degree days 0  
Moisture  
Dew Point 31 °F    
Average Humidity 60    
Maximum Humidity 100    
Minimum Humidity 27    
Precipitation  
Precipitation 0.09 in 0.04 in 0.75 in (2011)
Month to date precipitation 0.95  
Year to date precipitation 2.64  
Sea Level Pressure  
Sea Level Pressure 29.51 in    
Wind  
Wind Speed 14 mph (SSW)    
Max Wind Speed 31 mph    
Max Gust Speed 48 mph    
Visibility 10 miles    
Events Rain    
T = Trace of Precipitation, MM = Missing Value Source: NWS Daily Summary

Daily Weather History Graph

Daily Weather History Graph

Search for Another Location

Airport:

Trip Planner

Search our weather history database for the weather conditions in past years. The results will help you decide how hot, cold, wet, or windy it might be!

Date:

Astronomy

Apr. 29, 2013 Rise Set
Actual Time 6:35 AM CDT 9:06 PM CDT
Civil Twilight 6:00 AM CDT 9:41 PM CDT
Nautical Twilight 5:15 AM CDT 10:26 PM CDT
Astronomical Twilight 4:23 AM CDT 11:19 PM CDT
Moon 12:46 AM CDT (4/29) 9:50 AM CDT (4/29)
Length of Visible Light 15h 41m
Length of Day
14h 31m
Waning Gibbous, 80% of the Moon is Illuminated
Apr 29
Waning Gibbous
May 2
Last Quarter
May 9
New
May 17
First Quarter
May 24
Full

Hourly Weather History & Observations

Time (CDT) Temp. Windchill Dew Point Humidity Pressure Visibility Wind Dir Wind Speed Gust Speed Precip Events Conditions
12:15 AM 37.4 °F 30.3 °F 26.6 °F 65% 29.80 in 10.0 mi SE 10.4 mph - N/A   Clear
12:35 AM 37.4 °F 30.8 °F 26.6 °F 65% 29.78 in 10.0 mi SE 9.2 mph - N/A   Clear
12:55 AM 37.4 °F 30.3 °F 26.6 °F 65% 29.78 in 10.0 mi SSE 10.4 mph - N/A   Clear
1:15 AM 39.2 °F 31.2 °F 26.6 °F 61% 29.77 in 10.0 mi SSE 13.8 mph - N/A   Scattered Clouds
1:35 AM 37.4 °F 28.5 °F 26.6 °F 65% 29.76 in 10.0 mi SSE 15.0 mph - N/A   Mostly Cloudy
1:55 AM 37.4 °F 28.9 °F 26.6 °F 65% 29.74 in 10.0 mi SSE 13.8 mph - N/A   Partly Cloudy
2:15 AM 37.4 °F 29.8 °F 26.6 °F 65% 29.74 in 10.0 mi SSE 11.5 mph - N/A   Clear
2:35 AM 37.4 °F 30.3 °F 26.6 °F 65% 29.73 in 10.0 mi South 10.4 mph - N/A   Clear
2:55 AM 39.2 °F 32.5 °F 26.6 °F 61% 29.71 in 10.0 mi SSE 10.4 mph - N/A   Clear
3:15 AM 39.2 °F 33.6 °F 24.8 °F 56% 29.70 in 10.0 mi South 8.1 mph - N/A   Scattered Clouds
3:35 AM 37.4 °F 27.8 °F 24.8 °F 60% 29.67 in 10.0 mi South 17.3 mph 21.9 mph N/A   Mostly Cloudy
3:55 AM 39.2 °F 29.3 °F 24.8 °F 56% 29.65 in 10.0 mi South 20.7 mph 26.5 mph N/A   Mostly Cloudy
4:15 AM 39.2 °F 28.5 °F 23.0 °F 52% 29.63 in 10.0 mi South 24.2 mph 33.4 mph N/A   Clear
4:35 AM 39.2 °F 28.7 °F 23.0 °F 52% 29.62 in 10.0 mi South 23.0 mph 31.1 mph N/A   Clear
4:55 AM 39.2 °F 28.3 °F 19.4 °F 45% 29.60 in 10.0 mi South 25.3 mph 36.8 mph N/A   Clear
5:15 AM 41.0 °F 30.5 °F 15.8 °F 36% 29.58 in 10.0 mi SSE 26.5 mph 33.4 mph N/A   Clear
5:35 AM 41.0 °F 30.5 °F 14.0 °F 33% 29.57 in 10.0 mi SSE 26.5 mph 38.0 mph N/A   Clear
5:55 AM 41.0 °F 31.9 °F 15.8 °F 36% 29.57 in 10.0 mi South 19.6 mph 38.0 mph N/A   Scattered Clouds
6:15 AM 41.0 °F 32.8 °F 19.4 °F 42% 29.59 in 10.0 mi SSW 16.1 mph 24.2 mph N/A Rain Light Rain
6:35 AM 39.2 °F 29.8 °F 24.8 °F 56% 29.58 in 10.0 mi South 18.4 mph 27.6 mph N/A Rain Light Rain
6:55 AM 39.2 °F 30.2 °F 24.8 °F 56% 29.56 in 10.0 mi South 17.3 mph 23.0 mph N/A   Overcast
7:15 AM 39.2 °F 30.2 °F 24.8 °F 56% 29.55 in 10.0 mi South 17.3 mph 23.0 mph N/A   Mostly Cloudy
7:35 AM 39.2 °F 30.2 °F 24.8 °F 56% 29.54 in 10.0 mi South 17.3 mph - N/A   Mostly Cloudy
7:55 AM 39.2 °F 29.8 °F 24.8 °F 56% 29.53 in 10.0 mi South 18.4 mph 24.2 mph N/A   Mostly Cloudy
8:15 AM 39.2 °F 31.2 °F 26.6 °F 61% 29.53 in 10.0 mi South 13.8 mph 23.0 mph N/A   Mostly Cloudy
8:35 AM 41.0 °F 33.1 °F 26.6 °F 57% 29.52 in 10.0 mi South 15.0 mph - N/A   Mostly Cloudy
8:55 AM 41.0 °F 32.8 °F 28.4 °F 61% 29.50 in 10.0 mi South 16.1 mph - N/A   Partly Cloudy
9:15 AM 42.8 °F 34.8 °F 28.4 °F 57% 29.50 in 10.0 mi South 17.3 mph - N/A   Partly Cloudy
9:35 AM 42.8 °F 34.8 °F 28.4 °F 57% 29.50 in 10.0 mi South 17.3 mph 20.7 mph N/A   Clear
9:55 AM 44.6 °F 37.4 °F 32.0 °F 61% 29.49 in 10.0 mi South 16.1 mph 20.7 mph N/A   Partly Cloudy
10:15 AM 46.4 °F 39.5 °F 32.0 °F 57% 29.49 in 10.0 mi South 17.3 mph - N/A   Partly Cloudy
10:35 AM 48.2 °F - 32.0 °F 54% 29.48 in 10.0 mi SSW 13.8 mph - N/A   Clear
10:55 AM 50.0 °F - 35.6 °F 58% 29.48 in 10.0 mi SSW 10.4 mph - N/A   Partly Cloudy
11:15 AM 50.0 °F - 35.6 °F 58% 29.47 in 10.0 mi SSW 16.1 mph 20.7 mph N/A   Partly Cloudy
11:35 AM 51.8 °F - 37.4 °F 58% 29.46 in 10.0 mi SSW 12.7 mph - N/A   Clear
11:55 AM 53.6 °F - 37.4 °F 54% 29.46 in 10.0 mi SSW 12.7 mph 18.4 mph N/A   Clear
12:15 PM 55.4 °F - 35.6 °F 47% 29.46 in 10.0 mi SSW 13.8 mph - N/A   Clear
12:35 PM 57.2 °F - 32.0 °F 38% 29.45 in 10.0 mi SW 15.0 mph - N/A   Partly Cloudy
1:15 PM 62.6 °F - 28.4 °F 27% 29.43 in 10.0 mi WSW 15.0 mph 24.2 mph N/A   Partly Cloudy
1:35 PM 62.6 °F - 30.2 °F 30% 29.42 in 10.0 mi West 16.1 mph 23.0 mph N/A   Scattered Clouds
1:55 PM 60.8 °F - 30.2 °F 31% 29.42 in 10.0 mi SW 15.0 mph - N/A   Scattered Clouds
2:15 PM 60.8 °F - 32.0 °F 34% 29.42 in 10.0 mi WSW 15.0 mph 26.5 mph N/A   Scattered Clouds
2:35 PM 60.8 °F - 32.0 °F 34% 29.41 in 10.0 mi WNW 12.7 mph 17.3 mph N/A   Mostly Cloudy
2:55 PM 60.8 °F - 32.0 °F 34% 29.41 in 10.0 mi West 19.6 mph 26.5 mph N/A   Scattered Clouds
3:15 PM 60.8 °F - 32.0 °F 34% 29.40 in 10.0 mi West 15.0 mph 26.5 mph N/A   Mostly Cloudy
3:55 PM 59.0 °F - 32.0 °F 36% 29.39 in 10.0 mi SW 16.1 mph 20.7 mph N/A   Mostly Cloudy
4:15 PM 62.6 °F - 32.0 °F 32% 29.39 in 10.0 mi West 15.0 mph 20.7 mph N/A   Mostly Cloudy
4:35 PM 60.8 °F - 32.0 °F 34% 29.38 in 10.0 mi WSW 15.0 mph 18.4 mph N/A   Mostly Cloudy
4:55 PM 62.6 °F - 32.0 °F 32% 29.37 in 10.0 mi WSW 12.7 mph - N/A   Overcast
5:15 PM 64.4 °F - 32.0 °F 30% 29.36 in 10.0 mi WSW 16.1 mph 20.7 mph N/A   Mostly Cloudy
5:35 PM 62.6 °F - 32.0 °F 32% 29.36 in 10.0 mi WSW 11.5 mph 19.6 mph N/A   Partly Cloudy
5:55 PM 53.6 °F - 39.2 °F 58% 29.41 in 8.0 mi NW 31.1 mph 48.3 mph N/A   Mostly Cloudy
6:15 PM 44.6 °F 36.9 °F 41.0 °F 87% 29.42 in 8.0 mi North 18.4 mph 27.6 mph 0.09 in Rain Light Rain
6:35 PM 46.4 °F 40.4 °F 42.8 °F 87% 29.42 in 10.0 mi NNE 13.8 mph - 0.09 in   Scattered Clouds
6:55 PM 46.4 °F 40.4 °F 44.6 °F 93% 29.41 in 10.0 mi NNE 13.8 mph - 0.09 in   Clear
7:15 PM 46.4 °F 40.4 °F 42.8 °F 87% 29.42 in 10.0 mi NNE 13.8 mph - N/A   Clear
7:35 PM 46.4 °F 40.4 °F 42.8 °F 87% 29.41 in 10.0 mi NE 13.8 mph 17.3 mph N/A   Clear
7:55 PM 46.4 °F 41.5 °F 42.8 °F 87% 29.41 in 10.0 mi NE 10.4 mph - N/A   Clear
8:15 PM 46.4 °F 41.9 °F 42.8 °F 87% 29.41 in 10.0 mi NE 9.2 mph - N/A   Clear
8:35 PM 44.6 °F 43.1 °F 41.0 °F 87% 29.42 in 10.0 mi NNE 3.5 mph - N/A   Clear
8:55 PM 44.6 °F - 41.0 °F 87% 29.42 in 10.0 mi Calm Calm - N/A   Partly Cloudy
9:15 PM 44.6 °F 40.2 °F 41.0 °F 87% 29.42 in 10.0 mi ESE 8.1 mph - N/A   Clear
9:35 PM 41.0 °F - 41.0 °F 100% 29.45 in 10.0 mi Calm Calm - N/A   Clear
9:55 PM 41.0 °F - 39.2 °F 93% 29.44 in 10.0 mi Calm Calm - N/A   Clear
10:15 PM 39.2 °F 35.9 °F 39.2 °F 100% 29.44 in 10.0 mi SSE 4.6 mph - N/A   Clear
10:35 PM 41.0 °F 37.1 °F 41.0 °F 100% 29.44 in 10.0 mi South 5.8 mph - N/A   Clear
11:15 PM 39.2 °F 33.6 °F 39.2 °F 100% 29.45 in 10.0 mi North 8.1 mph - N/A   Clear
11:35 PM 39.2 °F 34.2 °F 39.2 °F 100% 29.45 in 10.0 mi North 6.9 mph - N/A   Clear
11:55 PM 37.4 °F 33.8 °F 37.4 °F 100% 29.44 in 10.0 mi NE 4.6 mph - N/A   Clear